EZY48FH LGKO-EGPF

Flight info

Callsign EZY48FH
Flight time 4h 23m
Altitude 36000
Route KOPAR L995 LURUS UL995 RIPLI DCT TRL DCT LATAN DCT LUXIL DCT PELEG DCT BOA DCT ABESI DCT HOC DCT MANAG DCT VESAN DCT RATUK DCT SOVAT L613 LEHOC DCT ASLIB
Aircraft A319/M-SDE3FGHIRWY/LB1

Departure

Time 2026-04-30 13:16
Airport Kos International Airport "Ippokratis" (LGKO)

Arrival

Time 2026-04-30 17:39
Airport Glasgow Airport (EGPF)
Time Latitude Longitude Altitude Speed Heading
2026-04-30 12:19 36.80149 27.08934 412 ft 0 kts 58°
2026-04-30 12:59 36.80145 27.08926 411 ft 3 kts 58°
2026-04-30 12:59 36.80134 27.08905 411 ft 3 kts 58°
2026-04-30 13:00 36.80125 27.08886 419 ft 2 kts 58°
2026-04-30 13:00 36.80115 27.08866 411 ft 3 kts 59°
2026-04-30 13:00 36.80110 27.08851 415 ft 3 kts 122°
2026-04-30 13:00 36.80123 27.08835 411 ft 2 kts 147°
2026-04-30 13:01 36.80139 27.08822 411 ft 3 kts 147°
2026-04-30 13:01 36.80145 27.08818 413 ft 0 kts 147°
2026-04-30 13:03 36.80137 27.08824 414 ft 2 kts 147°
2026-04-30 13:04 36.80120 27.08837 413 ft 4 kts 147°
2026-04-30 13:04 36.80094 27.08858 434 ft 5 kts 147°
2026-04-30 13:04 36.80059 27.08887 416 ft 6 kts 147°
2026-04-30 13:04 36.80023 27.08916 419 ft 7 kts 147°
2026-04-30 13:05 36.79982 27.08949 415 ft 7 kts 147°
2026-04-30 13:05 36.79939 27.08975 419 ft 7 kts 162°
2026-04-30 13:05 36.79892 27.08982 417 ft 7 kts 176°
2026-04-30 13:06 36.79812 27.08985 415 ft 1 kts 178°
2026-04-30 13:06 36.79804 27.08985 417 ft 1 kts 182°
2026-04-30 13:06 36.79798 27.08985 419 ft 1 kts 181°
2026-04-30 13:07 36.79795 27.08985 419 ft 0 kts 178°
2026-04-30 13:11 36.79794 27.08985 419 ft 0 kts 178°
2026-04-30 13:11 36.79787 27.08985 419 ft 3 kts 178°
2026-04-30 13:11 36.79747 27.08987 418 ft 8 kts 178°
2026-04-30 13:11 36.79679 27.08990 414 ft 10 kts 178°
2026-04-30 13:12 36.79605 27.09006 415 ft 12 kts 159°
2026-04-30 13:12 36.79519 27.09068 414 ft 16 kts 148°
2026-04-30 13:12 36.79412 27.09152 412 ft 20 kts 148°
2026-04-30 13:13 36.79130 27.09371 403 ft 26 kts 148°
2026-04-30 13:13 36.78967 27.09496 397 ft 28 kts 148°
2026-04-30 13:13 36.78679 27.09721 393 ft 17 kts 148°
2026-04-30 13:14 36.78593 27.09765 390 ft 12 kts 184°
2026-04-30 13:14 36.78549 27.09807 388 ft 6 kts 73°
2026-04-30 13:14 36.78577 27.09804 389 ft 0 kts 319°
2026-04-30 13:15 36.78862 27.09577 396 ft 83 kts 328°
2026-04-30 13:15 36.79528 27.09058 416 ft 140 kts 328°
2026-04-30 13:16 36.80458 27.08319 631 ft 170 kts 326°
2026-04-30 13:16 36.81492 27.07455 1078 ft 186 kts 323°
2026-04-30 13:16 36.82387 27.06250 1373 ft 202 kts 291°
2026-04-30 13:17 36.81521 27.02900 2390 ft 223 kts 233°
2026-04-30 13:17 36.80875 27.01080 2710 ft 242 kts 265°
2026-04-30 13:17 36.81362 26.97464 3646 ft 262 kts 283°
2026-04-30 13:18 36.81843 26.94451 4755 ft 266 kts 282°
2026-04-30 13:18 36.82519 26.89887 6407 ft 271 kts 281°
2026-04-30 13:18 36.82858 26.87559 7193 ft 273 kts 281°
2026-04-30 13:19 36.83198 26.85215 7972 ft 276 kts 280°
2026-04-30 13:19 36.83541 26.82847 8765 ft 278 kts 280°
2026-04-30 13:19 36.83887 26.80466 9568 ft 280 kts 280°
2026-04-30 13:19 36.84238 26.78056 10258 ft 286 kts 280°
2026-04-30 13:20 36.84609 26.75512 10449 ft 310 kts 280°
2026-04-30 13:20 36.85009 26.72770 10599 ft 332 kts 280°
2026-04-30 13:20 36.85430 26.69876 11019 ft 343 kts 280°
2026-04-30 13:20 36.85860 26.66924 11642 ft 347 kts 280°
2026-04-30 13:21 36.86294 26.63948 12297 ft 350 kts 280°
2026-04-30 13:21 36.86731 26.60942 12960 ft 353 kts 280°
2026-04-30 13:21 36.87167 26.57916 13617 ft 356 kts 279°
2026-04-30 13:22 36.88050 26.51783 14802 ft 361 kts 280°
2026-04-30 13:22 36.88497 26.48688 15377 ft 364 kts 280°
2026-04-30 13:22 36.89396 26.42422 16514 ft 369 kts 280°
2026-04-30 13:23 36.89848 26.39254 17082 ft 372 kts 280°
2026-04-30 13:23 36.90756 26.32849 18201 ft 377 kts 280°
2026-04-30 13:24 36.91678 26.26342 19186 ft 383 kts 280°
2026-04-30 13:24 36.92610 26.19765 20200 ft 386 kts 280°
2026-04-30 13:25 36.93543 26.13119 21144 ft 390 kts 280°
2026-04-30 13:25 36.94483 26.06393 22049 ft 395 kts 280°
2026-04-30 13:26 36.95901 25.96212 23336 ft 401 kts 279°
2026-04-30 13:26 36.96859 25.89302 24062 ft 405 kts 279°
2026-04-30 13:27 36.97811 25.82330 24772 ft 408 kts 279°
2026-04-30 13:28 36.99257 25.71787 25822 ft 412 kts 279°
2026-04-30 13:28 37.00226 25.64708 26500 ft 414 kts 279°
2026-04-30 13:28 37.00712 25.61146 26829 ft 416 kts 279°
2026-04-30 13:29 37.01681 25.53991 27473 ft 419 kts 279°
2026-04-30 13:29 37.02493 25.48005 28002 ft 421 kts 279°
2026-04-30 13:30 37.03954 25.37112 28910 ft 425 kts 279°
2026-04-30 13:31 37.04926 25.29784 29493 ft 427 kts 279°
2026-04-30 13:31 37.06369 25.18850 30645 ft 422 kts 279°
2026-04-30 13:32 37.07326 25.11614 31296 ft 420 kts 279°
2026-04-30 13:32 37.08263 25.04389 31901 ft 419 kts 278°
2026-04-30 13:33 37.09198 24.97212 32546 ft 417 kts 278°
2026-04-30 13:33 37.10141 24.90046 33152 ft 416 kts 278°
2026-04-30 13:34 37.10607 24.86471 33459 ft 416 kts 278°
2026-04-30 13:34 37.11983 24.75763 34319 ft 414 kts 278°
2026-04-30 13:35 37.12431 24.72250 34585 ft 413 kts 278°
2026-04-30 13:35 37.13335 24.65157 35113 ft 411 kts 278°
2026-04-30 13:36 37.14233 24.58101 35628 ft 409 kts 278°
2026-04-30 13:36 37.14678 24.54581 35881 ft 408 kts 278°
2026-04-30 13:36 37.15560 24.47570 36014 ft 406 kts 278°
2026-04-30 13:37 37.16873 24.37078 36012 ft 406 kts 278°
2026-04-30 13:38 37.18172 24.26590 36010 ft 406 kts 278°
2026-04-30 13:39 37.19892 24.12611 36005 ft 406 kts 278°
2026-04-30 13:40 37.21174 24.02121 36010 ft 406 kts 278°
2026-04-30 13:40 37.22022 23.95128 36007 ft 405 kts 278°
2026-04-30 13:41 37.22870 23.88134 36005 ft 405 kts 278°
2026-04-30 13:41 37.23709 23.81141 36005 ft 405 kts 278°
2026-04-30 13:42 37.24544 23.74149 36003 ft 405 kts 278°
2026-04-30 13:42 37.25785 23.63658 36004 ft 405 kts 278°
2026-04-30 13:43 37.26608 23.56693 36004 ft 405 kts 278°
2026-04-30 13:43 37.27432 23.49698 36003 ft 405 kts 278°
2026-04-30 13:44 37.28249 23.42706 36016 ft 405 kts 278°
2026-04-30 13:44 37.29060 23.35703 36016 ft 405 kts 278°
2026-04-30 13:45 37.30273 23.25224 36014 ft 404 kts 278°
2026-04-30 13:46 37.31069 23.18245 36008 ft 403 kts 278°
2026-04-30 13:46 37.31862 23.11269 36005 ft 403 kts 278°
2026-04-30 13:47 37.32649 23.04299 36000 ft 403 kts 278°
2026-04-30 13:47 37.33436 22.97337 35999 ft 402 kts 277°
2026-04-30 13:48 37.34213 22.90375 35996 ft 402 kts 277°
2026-04-30 13:48 37.34987 22.83459 35997 ft 402 kts 277°
2026-04-30 13:49 37.35762 22.76481 35996 ft 406 kts 278°
2026-04-30 13:49 37.36544 22.69375 35995 ft 415 kts 278°
2026-04-30 13:50 37.37347 22.62113 35996 ft 423 kts 278°
2026-04-30 13:50 37.38544 22.51128 35999 ft 423 kts 277°
2026-04-30 13:51 37.39336 22.43768 36005 ft 425 kts 277°
2026-04-30 13:51 37.40268 22.36453 35998 ft 423 kts 285°
2026-04-30 13:52 37.42848 22.29865 36004 ft 428 kts 304°
2026-04-30 13:52 37.46417 22.23872 36002 ft 428 kts 304°
2026-04-30 13:53 37.49985 22.17862 36006 ft 429 kts 304°
2026-04-30 13:53 37.53549 22.11839 36020 ft 429 kts 303°
2026-04-30 13:54 37.57110 22.05803 36030 ft 429 kts 303°
2026-04-30 13:54 37.60665 21.99770 36031 ft 429 kts 303°
2026-04-30 13:55 37.64215 21.93733 36027 ft 428 kts 303°
2026-04-30 13:55 37.67763 21.87686 36031 ft 428 kts 303°
2026-04-30 13:56 37.71304 21.81643 36033 ft 428 kts 303°
2026-04-30 13:56 37.74847 21.75583 36036 ft 429 kts 303°
2026-04-30 13:57 37.78389 21.69526 36025 ft 429 kts 303°
2026-04-30 13:57 37.81928 21.63455 36029 ft 429 kts 303°
2026-04-30 13:58 37.87201 21.54375 36032 ft 428 kts 303°
2026-04-30 13:59 37.90736 21.48291 36036 ft 429 kts 303°
2026-04-30 13:59 37.94265 21.42205 36039 ft 429 kts 303°
2026-04-30 14:00 37.97796 21.36106 36032 ft 429 kts 303°
2026-04-30 14:00 38.03067 21.26942 36025 ft 429 kts 303°
2026-04-30 14:01 38.06584 21.20828 36063 ft 429 kts 303°
2026-04-30 14:01 38.10101 21.14715 36051 ft 429 kts 303°
2026-04-30 14:02 38.13616 21.08592 36049 ft 429 kts 303°
2026-04-30 14:02 38.17131 21.02464 36047 ft 429 kts 303°
2026-04-30 14:03 38.20635 20.96321 36040 ft 429 kts 303°
2026-04-30 14:03 38.24132 20.90168 36046 ft 430 kts 303°
2026-04-30 14:04 38.27636 20.84010 36046 ft 430 kts 303°
2026-04-30 14:04 38.31141 20.77849 36058 ft 430 kts 303°
2026-04-30 14:05 38.34638 20.71676 36053 ft 429 kts 303°
2026-04-30 14:05 38.38134 20.65500 36055 ft 430 kts 303°
2026-04-30 14:06 38.43373 20.56226 36072 ft 430 kts 303°
2026-04-30 14:07 38.48602 20.46925 36069 ft 430 kts 303°
2026-04-30 14:08 38.53832 20.37612 36061 ft 430 kts 303°
2026-04-30 14:08 38.59062 20.28280 36059 ft 430 kts 303°
2026-04-30 14:09 38.62580 20.21961 36060 ft 430 kts 303°
2026-04-30 14:10 38.67798 20.12596 36065 ft 431 kts 303°
2026-04-30 14:10 38.70685 20.07407 36065 ft 431 kts 303°
2026-04-30 14:11 38.74154 20.01153 36072 ft 431 kts 303°
2026-04-30 14:11 38.77625 19.94890 36066 ft 431 kts 303°
2026-04-30 14:12 38.81093 19.88613 36063 ft 431 kts 303°
2026-04-30 14:12 38.84558 19.82334 36061 ft 432 kts 303°
2026-04-30 14:13 38.88025 19.76041 36058 ft 432 kts 303°
2026-04-30 14:13 38.91492 19.69743 36059 ft 432 kts 303°
2026-04-30 14:14 38.94953 19.63428 36060 ft 432 kts 303°
2026-04-30 14:14 38.98408 19.57113 36060 ft 432 kts 303°
2026-04-30 14:15 39.01864 19.50786 36068 ft 432 kts 303°
2026-04-30 14:15 39.05290 19.44496 36065 ft 432 kts 303°
2026-04-30 14:16 39.08734 19.38164 36069 ft 432 kts 303°
2026-04-30 14:16 39.12172 19.31821 36071 ft 432 kts 303°
2026-04-30 14:17 39.15608 19.25481 36076 ft 432 kts 303°
2026-04-30 14:17 39.19040 19.19132 36075 ft 432 kts 303°
2026-04-30 14:18 39.22474 19.12779 36076 ft 432 kts 303°
2026-04-30 14:18 39.27604 19.03239 36080 ft 431 kts 303°
2026-04-30 14:19 39.33462 18.94426 36091 ft 433 kts 311°
2026-04-30 14:20 39.37630 18.88815 36095 ft 432 kts 311°
2026-04-30 14:20 39.43867 18.80391 36093 ft 432 kts 311°
2026-04-30 14:21 39.47999 18.74760 36095 ft 431 kts 311°
2026-04-30 14:22 39.54189 18.66332 36094 ft 430 kts 311°
2026-04-30 14:22 39.60359 18.57915 36095 ft 429 kts 311°
2026-04-30 14:23 39.68563 18.46686 36105 ft 428 kts 311°
2026-04-30 14:24 39.74677 18.38284 36073 ft 425 kts 311°
2026-04-30 14:25 39.82774 18.27130 36078 ft 424 kts 311°
2026-04-30 14:26 39.88807 18.18793 36085 ft 424 kts 311°
2026-04-30 14:27 39.94848 18.10415 36079 ft 422 kts 310°
2026-04-30 14:27 39.98863 18.04843 36076 ft 422 kts 310°
2026-04-30 14:28 40.04880 17.96467 36079 ft 422 kts 310°
2026-04-30 14:28 40.08889 17.90867 36081 ft 422 kts 310°
2026-04-30 14:29 40.16220 17.80612 36089 ft 421 kts 310°
2026-04-30 14:31 40.26835 17.65697 36084 ft 420 kts 310°
2026-04-30 14:31 40.32792 17.57280 36085 ft 420 kts 310°
2026-04-30 14:32 40.38760 17.48864 36088 ft 420 kts 310°
2026-04-30 14:33 40.42737 17.43218 36092 ft 421 kts 310°
2026-04-30 14:33 40.48695 17.34751 36107 ft 420 kts 310°
2026-04-30 14:34 40.52655 17.29105 36104 ft 420 kts 310°
2026-04-30 14:34 40.56614 17.23451 36105 ft 419 kts 310°
2026-04-30 14:35 40.62538 17.14981 36112 ft 419 kts 310°
2026-04-30 14:36 40.66480 17.09326 36142 ft 418 kts 310°
2026-04-30 14:36 40.70393 17.03707 36141 ft 418 kts 310°
2026-04-30 14:37 40.74329 16.98047 36164 ft 418 kts 310°
2026-04-30 14:37 40.78252 16.92390 36151 ft 418 kts 310°
2026-04-30 14:38 40.82173 16.86731 36160 ft 418 kts 310°
2026-04-30 14:38 40.86150 16.81141 36163 ft 418 kts 311°
2026-04-30 14:39 40.90189 16.75607 36172 ft 418 kts 311°
2026-04-30 14:39 40.94214 16.70068 36160 ft 417 kts 311°
2026-04-30 14:40 41.00200 16.61729 36163 ft 415 kts 311°
2026-04-30 14:40 41.04167 16.56176 36165 ft 414 kts 311°
2026-04-30 14:41 41.08135 16.50632 36164 ft 414 kts 311°
2026-04-30 14:41 41.12099 16.45081 36165 ft 415 kts 311°
2026-04-30 14:42 41.16066 16.39522 36168 ft 415 kts 311°
2026-04-30 14:42 41.20031 16.33951 36164 ft 415 kts 311°
2026-04-30 14:43 41.23968 16.28402 36170 ft 415 kts 311°
2026-04-30 14:43 41.27932 16.22814 36190 ft 415 kts 310°
2026-04-30 14:44 41.31896 16.17225 36184 ft 415 kts 310°
2026-04-30 14:44 41.35848 16.11630 36182 ft 415 kts 310°
2026-04-30 14:45 41.39792 16.06025 36177 ft 415 kts 310°
2026-04-30 14:45 41.43731 16.00410 36176 ft 415 kts 310°
2026-04-30 14:46 41.47667 15.94796 36166 ft 414 kts 310°
2026-04-30 14:46 41.50940 15.90134 36205 ft 414 kts 310°
2026-04-30 14:47 41.55540 15.83572 36196 ft 414 kts 310°
2026-04-30 14:47 41.59459 15.77953 36190 ft 413 kts 310°
2026-04-30 14:48 41.63372 15.72338 36186 ft 413 kts 310°
2026-04-30 14:48 41.67257 15.66754 36188 ft 413 kts 310°
2026-04-30 14:49 41.71165 15.61124 36175 ft 412 kts 310°
2026-04-30 14:49 41.75067 15.55488 36181 ft 412 kts 310°
2026-04-30 14:50 41.80903 15.47043 36168 ft 411 kts 310°
2026-04-30 14:51 41.86729 15.38579 36172 ft 411 kts 310°
2026-04-30 14:52 41.92547 15.30120 36188 ft 411 kts 310°
2026-04-30 14:52 41.98362 15.21629 36180 ft 412 kts 310°
2026-04-30 14:53 42.04159 15.13150 36216 ft 412 kts 310°
2026-04-30 14:54 42.11914 15.01764 36218 ft 412 kts 310°
2026-04-30 14:55 42.17713 14.93197 36217 ft 412 kts 310°
2026-04-30 14:56 42.25453 14.81760 36216 ft 412 kts 310°
2026-04-30 14:57 42.30597 14.74132 36236 ft 412 kts 310°
2026-04-30 14:58 42.38304 14.62663 36240 ft 412 kts 310°
2026-04-30 14:58 42.44070 14.54036 36243 ft 412 kts 310°
2026-04-30 15:00 42.53675 14.39643 36262 ft 412 kts 310°
2026-04-30 15:01 42.61333 14.28086 36250 ft 412 kts 310°
2026-04-30 15:01 42.67088 14.19405 36230 ft 412 kts 310°
2026-04-30 15:02 42.70910 14.13613 36233 ft 412 kts 310°
2026-04-30 15:03 42.80471 13.99078 36226 ft 413 kts 310°
2026-04-30 15:04 42.90057 13.84413 36195 ft 415 kts 310°
2026-04-30 15:06 42.99640 13.69720 36230 ft 415 kts 310°
2026-04-30 15:07 43.07313 13.57867 36225 ft 418 kts 310°
2026-04-30 15:08 43.15029 13.45927 36213 ft 419 kts 310°
2026-04-30 15:09 43.24668 13.30885 36238 ft 420 kts 310°
2026-04-30 15:10 43.32402 13.18807 36237 ft 421 kts 310°
2026-04-30 15:11 43.43959 13.00612 36228 ft 422 kts 310°
2026-04-30 15:13 43.53624 12.85336 36236 ft 425 kts 310°
2026-04-30 15:14 43.67187 12.63761 36256 ft 425 kts 310°
2026-04-30 15:17 43.84572 12.35842 36247 ft 426 kts 310°
2026-04-30 15:19 44.00008 12.10841 36259 ft 428 kts 310°
2026-04-30 17:39 55.86661 -4.43131 32 ft 0 kts 72°